[[{"header":{"parameterUnit":"m.s-1","parameterCategory":1,"la1":30.2991,"la2":30.254,"lo1":-89.0895,"lo2":-89.0444,"dy":0.0017,"dx":0.0017,"nx":28,"ny":28,"refTime":"2025-05-20T03:00:00:Z","depth":0,"parameterNumber":2,"parameterNumberName":"U-component_of_WINDS"},"data":[0,0,0,0,0,0,0,0,0,0,0,0,0,0,0,0,0,0,0,0,0,0,0,0,0,0,0,0,0,0,0,0,0,0,0,0,0,0,0,0,0,0,0,0,0,0,0,0,0,0,0,0,0,0,0,0,0,0,4.5527,4.5529,0,4.5717,4.5719,4.5721,4.5694,4.5691,4.5688,4.5685,4.5881,4.5889,4.5897,0,0,0,0,0,0,0,0,0,0,0,0,0,4.5142,4.5149,4.5527,4.5529,4.5532,4.5716,4.5719,4.5722,4.5695,4.5691,4.5687,4.5683,4.5878,4.5888,4.5898,0,0,0,0,0,0,0,0,0,0,0,0,0,4.5318,4.5152,4.5526,4.554,4.5544,4.5716,4.5719,4.5722,4.5695,4.5691,4.5686,4.5681,4.5875,4.5887,4.5899,4.607,0,0,4.5937,4.5942,0,0,0,0,0,0,0,0,4.5308,4.5332,4.5536,4.554,4.5544,4.5677,4.5655,4.5839,4.5697,4.5638,4.5685,4.5679,4.5817,4.5834,4.588,4.6079,4.6088,4.5938,4.5945,4.595,4.5954,0,0,0,0,0,0,0,4.5296,4.5324,4.5602,4.5539,4.5544,4.5537,4.5557,4.569,4.5752,4.5643,4.5641,4.5664,4.5818,4.5868,4.5884,4.6091,4.5937,4.5948,4.5956,4.5961,4.6438,4.6444,0,0,0,0,0,0,4.528,4.5314,4.5596,4.5608,4.5412,4.5548,4.557,4.5639,4.575,4.5763,4.5668,4.5662,4.5849,4.587,4.5891,4.6098,4.595,4.5962,4.5969,4.6433,4.644,4.6445,0,0,0,0,0,0,4.5272,4.5305,4.5588,4.5461,4.5496,4.556,4.5637,4.5645,4.5695,4.5769,4.578,4.5707,4.5846,4.5874,4.6025,4.6104,4.5967,4.5978,4.6427,4.6435,4.6443,4.6513,0,0,0,0,0,0,4.5261,4.5303,4.5368,4.5462,4.5503,4.572,4.5642,4.5652,4.5716,4.571,4.5809,4.5821,4.5845,4.6007,4.6038,4.6119,4.5988,4.642,4.6431,4.644,4.6504,4.6522,4.6538,0,0,0,0,0,4.5247,4.5381,4.5372,4.5406,4.5586,4.5724,4.5747,4.5771,4.5722,4.5789,4.5836,4.5818,4.6091,4.6023,4.6057,4.6143,4.6415,4.6428,4.6439,4.6496,4.6519,4.6538,0,0,0,0,0,0,4.5296,4.5394,4.5384,4.5553,4.563,4.5719,4.5804,4.5795,4.5888,4.5879,4.5905,4.5928,4.6081,4.6127,4.605,4.6313,4.6246,4.6266,4.6278,4.63,4.6317,4.6302,4.5998,0,0,0,0,0,4.5326,4.5429,4.5509,4.565,4.5689,4.574,4.5801,4.5813,4.5894,4.5927,4.5986,4.6066,4.6169,4.6237,4.6337,4.651,4.6531,4.6586,4.6603,4.6617,4.6633,4.6728,4.6753,4.6485,4.6485,4.6484,0,0,4.539,4.5456,4.552,4.5662,4.5723,4.5829,4.5768,4.5883,4.5963,4.5945,4.6091,4.6137,4.6228,4.6391,4.6466,4.6434,4.6712,4.6632,4.6643,4.6652,4.6742,4.6768,4.679,4.6493,4.6491,4.649,0,0,4.556,4.562,4.5744,4.5806,4.5899,4.5932,4.5962,4.6052,4.6082,4.6229,4.6217,4.6312,4.649,4.6555,4.6611,4.6805,4.6791,4.6837,4.6926,4.7018,4.7039,4.7058,4.7126,4.715,4.6853,4.6853,4.6853,0,4.5627,4.5787,4.5809,4.5925,4.5988,4.5975,4.61,4.616,4.6281,4.6325,4.6287,4.651,4.657,4.6748,4.6795,4.6841,4.6876,4.6825,4.7034,4.7053,4.7071,4.7136,4.7162,4.6858,4.6857,4.6857,4.6856,0,4.5865,4.5976,4.6064,4.618,4.6253,4.6373,4.6413,4.6484,4.6489,4.6525,4.6675,4.6747,4.686,4.6903,4.691,4.7082,4.7059,4.7028,4.696,4.7101,4.7163,4.7188,4.6865,4.6863,4.6861,4.686,0,0,4.6072,4.6197,4.623,4.6282,4.6383,4.6469,4.6589,4.6699,4.6759,4.6842,4.6943,4.7093,4.7064,4.7129,4.7142,4.7222,4.737,4.7181,4.7184,4.7213,4.7563,4.7585,4.7614,4.7361,4.7366,4.737,4.7555,0,4.6251,4.6462,4.6484,4.6672,4.6775,4.6764,4.6868,4.6941,4.6978,4.707,4.7111,4.7217,4.7171,4.7209,4.7288,4.7335,4.744,4.7322,4.7455,4.7459,4.7432,4.7647,4.7671,4.7842,4.7579,4.7583,4.7586,0,4.6489,4.6579,4.6777,4.6863,4.6906,4.6999,4.7101,4.719,4.7272,4.7294,4.7364,4.7367,4.749,4.7418,4.7587,4.7506,4.7562,4.7593,4.76,4.7613,4.7531,4.7665,4.7898,4.7923,4.7625,4.7622,4.7619,0,4.662,4.679,4.693,4.6975,4.7079,4.7144,4.7191,4.7269,4.7333,4.7422,4.7464,4.7567,4.7623,4.7702,4.7732,4.7677,4.79,4.783,4.7921,4.792,4.7969,4.7965,4.8213,4.8005,4.8004,4.8004,4.8003,0,4.6818,4.6939,4.6989,4.7076,4.7211,4.7236,4.7369,4.7413,4.7482,4.7576,4.7573,4.7662,4.7696,4.7791,4.7815,4.7951,4.7977,4.7997,4.8002,4.7997,4.7995,4.8034,4.8023,4.8011,4.8009,4.8008,4.8007,0,4.6987,4.7025,4.7177,4.7262,4.7287,4.7383,4.7456,4.7539,4.7574,4.7693,4.7723,4.7778,4.7889,4.7927,4.8061,4.8077,4.8235,4.8231,4.8207,4.8208,4.8296,4.8287,4.8578,4.8617,4.8383,4.8386,4.8387,0,4.711,4.7203,4.7298,4.7361,4.7409,4.751,4.7575,4.7603,4.7671,4.7771,4.7842,4.7952,4.8041,4.8218,4.827,4.8373,4.837,4.8464,4.8385,4.8377,4.8371,4.8365,4.8374,4.8479,4.8482,4.8484,4.8485,0,4.7326,4.734,4.7433,4.7534,4.7611,4.7692,4.777,4.7821,4.786,4.7937,4.8049,4.8118,4.8254,4.8363,4.8467,4.8515,4.8507,4.851,4.8536,4.8532,4.8514,4.8524,4.8247,4.8503,4.8501,4.85,4.8499,4.8498,4.7476,4.7557,4.7636,4.7741,4.7802,4.7874,4.7956,4.8001,4.8095,4.8207,4.8218,4.8339,4.8418,4.8557,4.861,4.8705,4.8679,4.8717,4.8727,4.8735,4.8742,4.8499,4.8724,4.8724,4.8723,4.8723,4.8723,0,4.769,4.774,4.7836,4.7944,4.8026,4.801,4.8095,4.8165,4.8271,4.8345,4.8433,4.8561,4.8666,4.8726,4.8831,4.8895,4.8894,4.8922,4.8917,4.8928,4.876,4.8726,4.8921,4.8921,4.8921,4.8921,4.8921,4.8921,4.7812,4.7949,4.7972,4.8139,4.8188,4.8306,4.8356,4.8422,4.8482,4.8625,4.8712,4.875,4.8819,4.8928,4.9023,4.9038,4.9077,4.9107,4.9119,4.8961,4.894,4.8921,4.889,4.9115,4.9116,4.928,4.9281,4.9283]},{"header":{"parameterUnit":"m.s-1","parameterCategory":1,"la1":30.2991,"la2":30.254,"lo1":-89.0895,"lo2":-89.0444,"dy":0.0017,"dx":0.0017,"nx":28,"ny":28,"refTime":"2025-05-20T03:00:00:Z","depth":0,"parameterNumber":3,"parameterNumberName":"V-component_of_WINDS"},"data":[0,0,0,0,0,0,0,0,0,0,0,0,0,0,0,0,0,0,0,0,0,0,0,0,0,0,0,0,0,0,0,0,0,0,0,0,0,0,0,0,0,0,0,0,0,0,0,0,0,0,0,0,0,0,0,0,0,0,2.2586,2.2588,0,2.2781,2.2783,2.2785,2.2815,2.2813,2.2812,2.281,2.3012,2.3019,2.3026,0,0,0,0,0,0,0,0,0,0,0,0,0,2.2243,2.225,2.2586,2.2589,2.2591,2.278,2.2783,2.2786,2.2815,2.2813,2.2811,2.2809,2.301,2.3018,2.3026,0,0,0,0,0,0,0,0,0,0,0,0,0,2.2411,2.2252,2.2586,2.2629,2.2634,2.278,2.2783,2.2787,2.2816,2.2813,2.2811,2.2808,2.3007,2.3017,2.3027,2.3145,0,0,2.306,2.3064,0,0,0,0,0,0,0,0,2.2401,2.2423,2.262,2.2626,2.2633,2.2771,2.2736,2.2907,2.2816,2.2747,2.281,2.2807,2.2934,2.295,2.2993,2.3154,2.3163,2.306,2.3067,2.3071,2.3074,0,0,0,0,0,0,0,2.2389,2.2415,2.2663,2.2623,2.2631,2.2639,2.266,2.2769,2.2853,2.2753,2.2755,2.2778,2.2937,2.2982,2.2998,2.3166,2.306,2.307,2.3076,2.308,2.3435,2.3438,0,0,0,0,0,0,2.237,2.2405,2.2657,2.2669,2.2508,2.2647,2.2671,2.2729,2.2852,2.2868,2.278,2.2779,2.2966,2.2985,2.3005,2.3152,2.3071,2.3081,2.3087,2.3431,2.3435,2.3439,0,0,0,0,0,0,2.2362,2.2392,2.2649,2.2538,2.2571,2.2656,2.2722,2.2734,2.278,2.2872,2.2888,2.2811,2.2965,2.299,2.311,2.3159,2.3086,2.3095,2.3428,2.3433,2.3437,2.3445,0,0,0,0,0,0,2.2352,2.2389,2.2434,2.2539,2.2577,2.275,2.2725,2.274,2.2798,2.2798,2.2905,2.2921,2.2964,2.3094,2.312,2.3172,2.3104,2.3424,2.343,2.3435,2.344,2.3449,2.3456,0,0,0,0,0,2.234,2.2429,2.2436,2.2466,2.2635,2.2753,2.2775,2.2823,2.2801,2.2848,2.2907,2.2917,2.3149,2.3106,2.3136,2.3191,2.3421,2.3428,2.3435,2.3437,2.3447,2.3456,0,0,0,0,0,0,2.2328,2.2443,2.2453,2.2578,2.2655,2.2758,2.2818,2.2832,2.2918,2.2915,2.2971,2.2995,2.3113,2.3164,2.3114,2.3312,2.3283,2.3297,2.3274,2.3285,2.3293,2.3279,2.3112,0,0,0,0,0,2.234,2.2425,2.2521,2.2623,2.2661,2.2732,2.2786,2.2816,2.2899,2.2932,2.3,2.3081,2.3172,2.3231,2.332,2.3447,2.3472,2.35,2.3508,2.3514,2.3526,2.3598,2.3612,2.3462,2.3462,2.3461,0,0,2.2366,2.2439,2.249,2.2622,2.2686,2.2774,2.276,2.2854,2.292,2.2947,2.3064,2.3117,2.3211,2.3335,2.3393,2.3381,2.3572,2.3523,2.3527,2.3536,2.3607,2.3621,2.3634,2.3466,2.3466,2.3465,0,0,2.2458,2.2521,2.2613,2.2677,2.2773,2.282,2.2842,2.2943,2.2978,2.3097,2.3119,2.3199,2.3354,2.3421,2.3475,2.3592,2.3605,2.3619,2.3662,2.3731,2.3743,2.3754,2.3797,2.3812,2.363,2.363,2.363,0,2.2478,2.2611,2.2659,2.2752,2.281,2.2837,2.2931,2.2991,2.3111,2.3152,2.3136,2.3332,2.3397,2.3538,2.3567,2.3609,2.3637,2.3608,2.3737,2.3749,2.376,2.3802,2.3818,2.3631,2.3631,2.3631,2.3631,0,2.2632,2.2724,2.2787,2.2902,2.2967,2.306,2.3123,2.3183,2.3207,2.3256,2.3376,2.3455,2.3561,2.3596,2.3621,2.3741,2.3731,2.3726,2.3699,2.3774,2.3815,2.3831,2.3633,2.3632,2.3632,2.3632,0,0,2.2724,2.2863,2.2886,2.2939,2.3047,2.3119,2.3214,2.3316,2.3368,2.345,2.3532,2.3662,2.3658,2.372,2.3752,2.3813,2.3903,2.3801,2.3804,2.3818,2.4042,2.4046,2.4064,2.3911,2.3914,2.3917,2.4034,0,2.283,2.2999,2.3044,2.3188,2.3274,2.3301,2.3383,2.3459,2.3507,2.3588,2.3641,2.3734,2.372,2.3758,2.3819,2.3879,2.3949,2.3871,2.3989,2.3993,2.3967,2.4085,2.409,2.4197,2.405,2.4053,2.4055,0,2.2977,2.3061,2.3213,2.3311,2.3349,2.3422,2.352,2.3597,2.3683,2.3714,2.3782,2.3809,2.391,2.3875,2.4016,2.3962,2.4013,2.4049,2.4055,2.4069,2.403,2.4104,2.4232,2.4248,2.408,2.4078,2.4076,0,2.303,2.3182,2.3293,2.3337,2.3453,2.3504,2.3555,2.3639,2.3698,2.3784,2.3823,2.3919,2.3973,2.4047,2.41,2.4069,2.4236,2.4206,2.4266,2.4265,2.4302,2.4299,2.4441,2.4331,2.4331,2.4331,2.433,0,2.3145,2.3238,2.3319,2.3387,2.3492,2.3543,2.3646,2.3698,2.3772,2.3852,2.388,2.3954,2.4018,2.4102,2.4143,2.4254,2.4277,2.4306,2.4317,2.4305,2.4301,2.4341,2.4335,2.4335,2.4334,2.4333,2.4332,0,2.3224,2.3281,2.3404,2.3504,2.3531,2.3604,2.3689,2.3757,2.3805,2.3906,2.3933,2.4009,2.4109,2.4168,2.4294,2.4322,2.4445,2.4451,2.4416,2.4421,2.4478,2.4473,2.4652,2.4679,2.4549,2.455,2.4551,0,2.3294,2.3366,2.3473,2.3528,2.3579,2.3667,2.3727,2.378,2.3842,2.3946,2.4002,2.4103,2.4187,2.4345,2.4413,2.451,2.452,2.4576,2.4534,2.4521,2.4523,2.4518,2.4527,2.4583,2.4584,2.4585,2.4586,0,2.3413,2.3438,2.3523,2.3619,2.369,2.3768,2.3845,2.3889,2.3955,2.4024,2.4125,2.419,2.4319,2.4419,2.4522,2.4575,2.4593,2.4598,2.4618,2.4607,2.4585,2.4599,2.4437,2.4594,2.4593,2.4593,2.4592,2.4592,2.3492,2.3557,2.3642,2.3737,2.38,2.3872,2.3941,2.3998,2.4083,2.4192,2.4218,2.4325,2.4411,2.455,2.4606,2.4691,2.4682,2.471,2.4717,2.4724,2.4726,2.4569,2.471,2.4709,2.4709,2.4709,2.4709,0,2.3614,2.367,2.3756,2.3863,2.3938,2.3946,2.4032,2.4094,2.4188,2.4266,2.4347,2.4465,2.4563,2.4637,2.4738,2.4792,2.4803,2.4817,2.4814,2.4827,2.4727,2.4701,2.4807,2.4807,2.4807,2.4807,2.4806,2.4806,2.3686,2.3798,2.3833,2.3976,2.4032,2.4137,2.4186,2.4253,2.4315,2.4445,2.4526,2.4573,2.4651,2.4757,2.4847,2.4867,2.4903,2.4917,2.4938,2.4844,2.4834,2.4824,2.48,2.4924,2.4924,2.503,2.5031,2.5032]}]]